Location: Huntsville
(41.2590°N, 111.7678°W)
Time: 13:05:51
(UTC+00:00)

Courier 1B Rocket - Pass Details

Date: 17 June 2021
Orbit: 920 x 1202 km, 28.2° (Epoch: 24 July)

Event Time Altitude Azimuth Distance (km) Brightness Sun altitude
Rises 08:26:07 0° 252° (WSW) 3,547 - -24.0°
Reaches altitude 10° 08:31:07 10° 217° (SW) 2,607 - -23.7°
Maximum altitude 08:32:37 11° 203° (SSW) 2,548 - -23.6°
Drops below altitude 10° 08:34:09 10° 189° (S) 2,620 - -23.6°
Sets 08:39:15 0° 154° (SSE) 3,606 - -23.3°
